GW4109 Weather Reports


Display with metric or nautical units.
time (UTC)temp
F
wind
direction
speed
MPH
gust
MPH
rain 1hr
in
rain 24hr
in
rain mn
in
humidity
%
barometer
mb
20260505231439 72 239 13.0 16.0 0.00 0.00 0.00 31 1015.5
20260505230937 73 240 2.0 22.0 0.00 0.00 0.00 31 1015.3
20260505230435 72 232 9.0 20.0 0.00 0.00 0.00 32 1015.5
20260505225931 72 242 12.0 20.0 0.00 0.00 0.00 31 1015.5
20260505225428 73 242 11.0 20.0 0.00 0.00 0.00 30 1015.6
20260505224923 72 218 8.0 20.0 0.00 0.00 0.00 30 1015.6
20260505224421 71 253 14.0 22.0 0.00 0.00 0.00 31 1015.8
20260505223918 73 235 10.0 10.0 0.00 0.00 0.00 30 1016.0
20260505223415 73 227 14.0 16.0 0.00 0.00 0.00 29 1015.9
20260505222911 74 232 19.0 21.0 0.00 0.00 0.00 29 1015.8
20260505222407 71 249 8.0 15.0 0.00 0.00 0.00 32 1015.9
20260505221904 73 246 4.0 21.0 0.00 0.00 0.00 31 1016.1
20260505221401 73 183 1.0 5.0 0.00 0.00 0.00 31 1016.1
20260505220858 74 327 7.0 16.0 0.00 0.00 0.00 30 1016.1
20260505220355 71 345 3.0 13.0 0.00 0.00 0.00 32 1016.5
20260505215852 72 232 9.0 15.0 0.00 0.00 0.00 31 1016.3
20260505215351 71 309 8.0 17.0 0.00 0.00 0.00 31 1016.2
20260505214848 74 249 3.0 14.0 0.00 0.00 0.00 30 1016.6
20260505214346 73 172 1.0 8.0 0.00 0.00 0.00 31 1016.5
20260505213843 71 247 6.0 14.0 0.00 0.00 0.00 33 1016.6
20260505213341 71 253 6.0 23.0 0.00 0.00 0.00 31 1016.6
20260505212836 71 255 4.0 11.0 0.00 0.00 0.00 31 1016.8
20260505212333 71 252 5.0 11.0 0.00 0.00 0.00 32 1016.8
20260505211829 71 329 12.0 17.0 0.00 0.00 0.00 32 1016.8
20260505211327 72 264 5.0 15.0 0.00 0.00 0.00 32 1016.7
20260505210824 73 354 6.0 12.0 0.00 0.00 0.00 32 1016.7
20260505210320 70 330 6.0 12.0 0.00 0.00 0.00 35 1016.8
20260505205817 71 257 8.0 14.0 0.00 0.00 0.00 33 1016.9
20260505205316 71 333 4.0 6.0 0.00 0.00 0.00 33 1016.8
20260505204812 70 289 3.0 11.0 0.00 0.00 0.00 34 1017.0
20260505204310 72 134 0.0 15.0 0.00 0.00 0.00 31 1016.8
20260505203807 70 320 12.0 15.0 0.00 0.00 0.00 34 1016.8
20260505203304 71 310 4.0 11.0 0.00 0.00 0.00 34 1016.8
20260505202800 71 332 5.0 13.0 0.00 0.00 0.00 34 1016.7
20260505202256 70 330 5.0 10.0 0.00 0.00 0.00 35 1016.9
20260505201753 72 24 1.0 8.0 0.00 0.00 0.00 35 1016.8
20260505201250 70 80 4.0 7.0 0.00 0.00 0.00 35 1016.9
20260505200749 68 249 6.0 7.0 0.00 0.00 0.00 38 1017.0
20260505200245 69 312 5.0 13.0 0.00 0.00 0.00 37 1017.0
20260505195740 71 342 3.0 13.0 0.00 0.00 0.00 36 1017.1
20260505195239 68 253 7.0 16.0 0.00 0.00 0.00 37 1017.1
20260505194735 70 312 12.0 21.0 0.00 0.00 0.00 37 1017.2
20260505194232 68 309 10.0 17.0 0.00 0.00 0.00 40 1017.3
20260505193728 68 302 6.0 10.0 0.00 0.00 0.00 40 1017.4
20260505193225 68 312 13.0 15.0 0.00 0.00 0.00 40 1017.4
20260505192724 69 248 5.0 15.0 0.00 0.00 0.00 37 1017.4
20260505192221 69 310 6.0 13.0 0.00 0.00 0.00 39 1017.6
20260505191719 69 35 2.0 9.0 0.00 0.00 0.00 40 1017.2
20260505191218 67 68 3.0 8.0 0.00 0.00 0.00 41 1017.7
20260505190713 68 257 8.0 9.0 0.00 0.00 0.00 41 1017.7
20260505190213 69 349 2.0 10.0 0.00 0.00 0.00 40 1017.6
20260505185710 66 56 1.0 13.0 0.00 0.00 0.00 42 1017.6
20260505185206 67 236 4.0 16.0 0.00 0.00 0.00 42 1017.4
20260505184702 68 146 2.0 6.0 0.00 0.00 0.00 41 1017.5
20260505184200 68 303 3.0 5.0 0.00 0.00 0.00 41 1017.6
20260505183656 68 359 2.0 9.0 0.00 0.00 0.00 41 1017.7
20260505183154 68 311 5.0 10.0 0.00 0.00 0.00 41 1017.5
20260505182650 67 317 9.0 14.0 0.00 0.00 0.00 43 1017.6
20260505182148 67 357 4.0 18.0 0.00 0.00 0.00 43 1017.4
20260505181643 66 321 8.0 17.0 0.00 0.00 0.00 43 1017.5
20260505181141 67 323 11.0 12.0 0.00 0.00 0.00 42 1017.4
20260505180637 67 322 13.0 14.0 0.00 0.00 0.00 42 1017.2
20260505180135 68 55 3.0 9.0 0.00 0.00 0.00 42 1017.2
20260505175631 67 23 3.0 13.0 0.00 0.00 0.00 42 1017.0
20260505175127 68 357 3.0 8.0 0.00 0.00 0.00 42 1017.1
20260505174624 68 339 2.0 5.0 0.00 0.00 0.00 42 1017.1
20260505174120 66 250 3.0 18.0 0.00 0.00 0.00 44 1017.0
20260505173617 68 356 5.0 7.0 0.00 0.00 0.00 43 1017.0
20260505173114 68 44 3.0 5.0 0.00 0.00 0.00 43 1016.8
20260505172611 68 345 6.0 11.0 0.00 0.00 0.00 43 1016.7
20260505172108 68 53 2.0 6.0 0.00 0.00 0.00 43 1016.8
20260505171602 68 345 5.0 7.0 0.00 0.00 0.00 44 1016.6
20260505171100 68 19 2.0 11.0 0.00 0.00 0.00 43 1016.6
20260505170556 67 337 4.0 7.0 0.00 0.00 0.00 45 1016.5
20260505170053 67 0 4.0 8.0 0.00 0.00 0.00 45 1016.6
20260505165548 67 343 3.0 9.0 0.00 0.00 0.00 45 1016.5
20260505165044 68 329 7.0 9.0 0.00 0.00 0.00 45 1016.6
20260505164540 69 4 3.0 8.0 0.00 0.00 0.00 44 1016.6
20260505164038 68 17 4.0 8.0 0.00 0.00 0.00 44 1016.3
20260505163537 69 24 4.0 7.0 0.00 0.00 0.00 43 1016.3
20260505163033 69 50 4.0 6.0 0.00 0.00 0.00 43 1016.2
20260505162526 69 125 0.0 3.0 0.00 0.00 0.00 41 1016.5
20260505162023 68 66 2.0 7.0 0.00 0.00 0.00 44 1016.2
20260505161520 68 348 3.0 8.0 0.00 0.00 0.00 45 1016.1
20260505161017 69 300 0.0 4.0 0.00 0.00 0.00 43 1016.3
20260505160515 67 114 0.0 6.0 0.00 0.00 0.00 44 1016.3
20260505152951 64 287 2.0 7.0 0.00 0.00 0.00 48 1016.0
20260505152449 65 262 4.0 8.0 0.00 0.00 0.00 47 1016.1
20260505151943 65 268 7.0 9.0 0.00 0.00 0.00 47 1015.9
20260505151439 66 216 3.0 4.0 0.00 0.00 0.00 45 1015.9
20260505150937 65 212 0.0 2.0 0.00 0.00 0.00 47 1015.7
20260505150433 66 266 3.0 7.0 0.00 0.00 0.00 46 1015.9
20260505140403 65 44 0.0 2.0 0.00 0.00 0.00 49 1015.6
20260505124817 57 156 1.0 2.0 0.00 0.00 0.00 62 1015.0
20260505124314 56 177 1.0 3.0 0.00 0.00 0.00 62 1015.0
20260505123810 57 153 2.0 2.0 0.00 0.00 0.00 62 1014.8
20260505123307 56 165 3.0 3.0 0.00 0.00 0.00 64 1014.9
20260505122802 55 134 2.0 4.0 0.00 0.00 0.00 65 1014.8
20260505122300 55 322 0.0 1.0 0.00 0.00 0.00 64 1014.8
20260505121756 55 100 0.0 1.0 0.00 0.00 0.00 64 1014.7
20260505121253 55 118 0.0 2.0 0.00 0.00 0.00 63 1014.8
20260505120750 56 254 1.0 4.0 0.00 0.00 0.00 62 1014.8
20260505120246 57 88 3.0 5.0 0.00 0.00 0.00 61 1014.8
20260505115744 57 92 2.0 5.0 0.00 0.00 0.00 61 1014.8
20260505115242 57 87 3.0 5.0 0.00 0.00 0.00 61 1014.8
20260505114740 57 98 3.0 4.0 0.00 0.00 0.00 61 1015.0
20260505114236 57 143 0.0 3.0 0.00 0.00 0.00 62 1015.0
20260505113733 57 53 2.0 3.0 0.00 0.00 0.00 61 1015.2
20260505113230 57 79 1.0 3.0 0.00 0.00 0.00 61 1015.1
20260505112726 59 148 0.0 2.0 0.00 0.00 0.00 60 1015.5
20260505112224 59 89 0.0 2.0 0.00 0.00 0.00 59 1015.1
20260505111723 59 115 1.0 2.0 0.00 0.00 0.00 59 1015.1
20260505111219 59 191 2.0 3.0 0.00 0.00 0.00 58 1015.3
20260505110715 59 237 2.0 3.0 0.00 0.00 0.00 58 1015.2
20260505110213 59 230 2.0 5.0 0.00 0.00 0.00 57 1015.4
20260505102148 59 93 2.0 3.0 0.00 0.00 0.00 57 1015.3
20260505101647 60 99 3.0 6.0 0.00 0.00 0.00 56 1015.2
20260505101143 60 87 6.0 6.0 0.00 0.00 0.00 56 1015.3
20260505100639 59 100 3.0 5.0 0.00 0.00 0.00 56 1015.2
20260505100136 59 93 2.0 4.0 0.00 0.00 0.00 57 1015.5
20260505095632 60 89 5.0 6.0 0.00 0.00 0.00 56 1015.2
20260505095129 60 92 6.0 6.0 0.00 0.00 0.00 55 1015.4
20260505094625 60 52 2.0 3.0 0.00 0.00 0.00 54 1015.4
20260505094122 60 231 5.0 5.0 0.00 0.00 0.00 53 1015.3
20260505093618 60 217 2.0 4.0 0.00 0.00 0.00 54 1015.3
20260505093115 60 252 3.0 3.0 0.00 0.00 0.00 54 1015.4
20260505092612 60 271 2.0 5.0 0.00 0.00 0.00 53 1015.2
20260505092111 61 348 3.0 6.0 0.00 0.00 0.00 52 1015.4
20260505091607 61 314 2.0 4.0 0.00 0.00 0.00 52 1015.4
20260505091106 61 318 6.0 6.0 0.00 0.00 0.00 52 1015.8
20260505090603 61 327 3.0 5.0 0.00 0.00 0.00 53 1015.8
20260505090101 61 256 1.0 6.0 0.00 0.00 0.00 52 1015.9
20260505085558 61 275 3.0 8.0 0.00 0.00 0.00 52 1015.8
20260505085057 60 236 4.0 4.0 0.00 0.00 0.00 53 1016.1
20260505084554 60 356 2.0 4.0 0.00 0.00 0.00 53 1016.0
20260505084052 61 275 0.0 3.0 0.00 0.00 0.00 52 1016.1
20260505083549 61 328 4.0 8.0 0.00 0.00 0.00 51 1016.1
20260505083046 61 311 3.0 6.0 0.00 0.00 0.00 51 1016.2
20260505082541 62 328 6.0 9.0 0.00 0.00 0.00 51 1016.3
20260505082039 62 281 5.0 16.0 0.00 0.00 0.00 50 1016.5
20260505081535 62 317 2.0 9.0 0.00 0.00 0.00 50 1016.5
20260505081032 61 10 2.0 5.0 0.00 0.00 0.00 51 1016.6
20260505080528 61 248 4.0 10.0 0.00 0.00 0.00 52 1016.5
20260505080025 61 340 5.0 6.0 0.00 0.00 0.00 52 1016.5
20260505075521 61 276 3.0 6.0 0.00 0.00 0.00 51 1016.6
20260505075018 61 295 3.0 16.0 0.00 0.00 0.00 52 1016.7
20260505074515 62 336 1.0 18.0 0.00 0.00 0.00 52 1016.7
20260505074012 62 258 3.0 8.0 0.00 0.00 0.00 53 1016.6
20260505073510 62 256 4.0 6.0 0.00 0.00 0.00 53 1016.6
20260505073008 62 332 3.0 4.0 0.00 0.00 0.00 53 1016.7
20260505072503 62 265 6.0 12.0 0.00 0.00 0.00 52 1016.6
20260505071959 62 248 4.0 5.0 0.00 0.00 0.00 52 1016.6
20260505071455 62 225 2.0 3.0 0.00 0.00 0.00 52 1016.7
20260505070953 62 354 4.0 5.0 0.00 0.00 0.00 52 1016.6
20260505070450 62 329 6.0 6.0 0.00 0.00 0.00 52 1016.6
20260505065946 62 273 2.0 6.0 0.00 0.00 0.00 52 1016.3
20260505065442 62 322 4.0 6.0 0.00 0.00 0.00 52 1016.6
20260505064940 62 202 2.0 4.0 0.00 0.00 0.00 53 1016.7
20260505064436 62 244 2.0 7.0 0.00 0.00 0.00 52 1016.8
20260505063934 62 240 11.0 15.0 0.00 0.00 0.00 52 1016.5
20260505063431 62 274 4.0 11.0 0.00 0.00 0.00 52 1016.5
20260505062927 62 263 6.0 8.0 0.00 0.00 0.00 52 1016.8
20260505062425 62 262 4.0 11.0 0.00 0.00 0.00 52 1016.8
20260505061921 62 232 9.0 11.0 0.00 0.00 0.00 52 1016.9
20260505061419 61 261 2.0 5.0 0.00 0.00 0.00 53 1016.8
20260505060917 61 232 7.0 10.0 0.00 0.00 0.00 53 1017.0
20260505060413 62 228 3.0 6.0 0.00 0.00 0.00 51 1016.8
20260505055910 62 338 10.0 12.0 0.00 0.00 0.00 50 1016.7
20260505055406 62 278 3.0 14.0 0.00 0.00 0.00 50 1016.8
20260505054903 62 256 9.0 14.0 0.00 0.00 0.00 51 1016.7
20260505054400 62 268 5.0 11.0 0.00 0.00 0.00 51 1017.0
20260505053858 62 321 5.0 12.0 0.00 0.00 0.00 50 1017.2
20260505053355 62 250 14.0 19.0 0.00 0.00 0.00 50 1017.3
20260505052852 63 276 7.0 24.0 0.00 0.00 0.00 49 1017.1
20260505052348 63 228 15.0 22.0 0.00 0.00 0.00 48 1017.0
20260505051846 63 231 13.0 20.0 0.00 0.00 0.00 48 1017.0
20260505051343 63 252 7.0 8.0 0.00 0.00 0.00 47 1017.1
20260505050842 63 240 9.0 16.0 0.00 0.00 0.00 46 1017.0
20260505050340 63 241 11.0 13.0 0.00 0.00 0.00 46 1016.8
20260505041306 63 249 9.0 15.0 0.00 0.00 0.00 47 1017.3
20260505040804 63 297 6.0 14.0 0.00 0.00 0.00 48 1017.1
20260505040301 64 250 9.0 16.0 0.00 0.00 0.00 47 1017.2
20260505035758 64 301 7.0 15.0 0.00 0.00 0.00 48 1017.0
20260505035253 64 301 5.0 18.0 0.00 0.00 0.00 47 1017.1
20260505034751 64 297 5.0 18.0 0.00 0.00 0.00 46 1017.1
20260505034247 64 313 8.0 22.0 0.00 0.00 0.00 46 1016.9
20260505033744 64 300 6.0 16.0 0.00 0.00 0.00 47 1016.8
20260505033242 64 249 7.0 16.0 0.00 0.00 0.00 46 1016.7
20260505032740 64 337 8.0 13.0 0.00 0.00 0.00 46 1016.9
20260505032235 64 104 0.0 10.0 0.00 0.00 0.00 45 1016.8
20260505031733 64 351 4.0 12.0 0.00 0.00 0.00 45 1016.6
20260505031229 64 240 4.0 9.0 0.00 0.00 0.00 46 1016.3
20260505030726 64 320 2.0 9.0 0.00 0.00 0.00 45 1016.5
20260505030222 64 281 5.0 12.0 0.00 0.00 0.00 45 1016.5
20260505025718 65 310 6.0 14.0 0.00 0.00 0.00 45 1016.2
20260505025217 65 319 2.0 10.0 0.00 0.00 0.00 44 1016.5
20260505024714 65 0 4.0 11.0 0.00 0.00 0.00 44 1016.1
20260505024211 65 321 10.0 14.0 0.00 0.00 0.00 44 1016.0
20260505023708 65 338 5.0 11.0 0.00 0.00 0.00 44 1016.0
20260505023206 65 255 11.0 19.0 0.00 0.00 0.00 43 1016.0
20260505022703 65 302 8.0 14.0 0.00 0.00 0.00 43 1016.2
20260505022200 65 256 3.0 20.0 0.00 0.00 0.00 42 1015.9
20260505021657 66 239 7.0 19.0 0.00 0.00 0.00 43 1016.0
20260505021153 66 325 8.0 13.0 0.00 0.00 0.00 43 1015.8
20260505020649 66 328 13.0 24.0 0.00 0.00 0.00 43 1015.8
20260505020145 66 342 11.0 18.0 0.00 0.00 0.00 43 1015.7
20260505015643 66 315 11.0 15.0 0.00 0.00 0.00 42 1015.7
20260505015139 66 254 4.0 13.0 0.00 0.00 0.00 42 1015.8
20260505014636 67 340 5.0 6.0 0.00 0.00 0.00 41 1016.0
20260505014133 67 201 3.0 27.0 0.00 0.00 0.00 41 1016.3
20260505013630 67 295 9.0 11.0 0.00 0.00 0.00 42 1015.9
20260505013127 67 337 14.0 15.0 0.00 0.00 0.00 41 1015.8
20260505012625 68 320 11.0 15.0 0.00 0.00 0.00 40 1015.8
20260505012122 68 10 2.0 5.0 0.00 0.00 0.00 41 1015.8
20260505011617 68 254 8.0 18.0 0.00 0.00 0.00 40 1016.0
20260505011115 69 351 7.0 10.0 0.00 0.00 0.00 38 1015.7
20260505010610 69 10 5.0 18.0 0.00 0.00 0.00 39 1015.9
20260505010107 70 338 7.0 14.0 0.00 0.00 0.00 39 1015.8
20260505005603 69 236 6.0 11.0 0.00 0.00 0.00 39 1016.0
20260505005101 70 278 6.0 15.0 0.00 0.00 0.00 38 1016.0
20260505004557 70 319 9.0 13.0 0.00 0.00 0.00 38 1015.8
20260505004054 71 219 6.0 8.0 0.00 0.00 0.00 36 1016.0
20260505003552 70 232 10.0 19.0 0.00 0.00 0.00 37 1015.8
20260505003049 71 292 4.0 9.0 0.00 0.00 0.00 35 1015.8
20260505002543 71 321 7.0 17.0 0.00 0.00 0.00 35 1015.9
20260505002043 71 304 8.0 18.0 0.00 0.00 0.00 35 1015.8
20260505001540 71 333 6.0 7.0 0.00 0.00 0.00 35 1015.7
20260505001037 71 298 12.0 20.0 0.00 0.00 0.00 35 1015.6
20260505000534 71 238 2.0 16.0 0.00 0.00 0.00 34 1015.7
20260505000032 72 276 7.0 13.0 0.00 0.00 0.00 35 1015.6
20260504235528 71 273 4.0 13.0 0.00 0.00 0.00 33 1015.4
20260504235025 71 263 6.0 21.0 0.00 0.00 0.00 34 1015.5
20260504234522 72 251 12.0 20.0 0.00 0.00 0.00 34 1015.4
20260504234019 72 247 12.0 17.0 0.00 0.00 0.00 33 1015.4
20260504233514 71 260 9.0 14.0 0.00 0.00 0.00 34 1015.1
20260504233011 73 249 6.0 7.0 0.00 0.00 0.00 33 1015.2
20260504232508 73 237 17.0 23.0 0.00 0.00 0.00 33 1015.4
20260504232006 74 312 6.0 14.0 0.00 0.00 0.00 32 1015.2